Location: Bratislava
(0.0000°N, 17.1167°E)
Time: 03:37:48
(UTC+01:00)

Cosmos 923 Rocket - Pass Details

Date: 24 January 2021
Orbit: 758 x 785 km, 74.0° (Epoch: 06 March)

Event Time Altitude Azimuth Distance (km) Brightness Sun altitude
Rises 18:41:16 0° 360° (N) 3,240 7.0 -8.9°
Reaches altitude 10° 18:43:45 10° 6° (N) 2,311 6.2 -9.5°
Maximum altitude 18:48:44 44° 78° (ENE) 1,058 4.3 -10.6°
Drops below altitude 10° 18:53:41 10° 149° (SSE) 2,303 6.4 -11.8°
Sets 18:56:08 0° 155° (SSE) 3,228 7.2 -12.4°
